Weather History for KJMR - January, 2013

Change the Weather History Date:

Sunday, January 27, 2013

  Actual Average Record
Temperature  
Mean Temperature 24 °F -  
Max Temperature 32 °F 19 °F 44 °F (1989)
Min Temperature 17 °F -7 °F -33 °F (1935)
Degree Days  
Heating Degree Days 40    
Moisture  
Dew Point 19 °F    
Average Humidity 77    
Maximum Humidity 100    
Minimum Humidity 60    
Precipitation  
Precipitation 0.07 in - - ()
Sea Level Pressure  
Sea Level Pressure 29.95 in    
Wind  
Wind Speed 4 mph (ESE)    
Max Wind Speed 9 mph    
Max Gust Speed -    
Visibility 7 miles    
Events Snow    
Averages and records for this station are not official NWS values.
T = Trace of Precipitation, MM = Missing Value Source: NWS Daily Summary

Daily Weather History Graph

Daily Weather History Graph

Search for Another Location

Airport or City:

Trip Planner

Search our weather history database for the weather conditions in past years. The results will help you decide how hot, cold, wet, or windy it might be!

Date:

Astronomy

Jan. 27, 2013 Rise Set
Actual Time 7:40 AM CST 5:11 PM CST
Civil Twilight 7:08 AM CST 5:44 PM CST
Nautical Twilight 6:32 AM CST 6:20 PM CST
Astronomical Twilight 5:56 AM CST 6:55 PM CST
Moon 6:12 PM CST (1/27) 7:29 AM CST (1/27)
Length of Visible Light 10h 36m
Length of Day
9h 31m
Full, 100% of the Moon is Illuminated
Jan 27
Full
Feb 3
Last Quarter
Feb 10
New
Feb 17
First Quarter
Feb 25
Full

Hourly Weather History & Observations

Time (CST) Temp. Windchill Dew Point Humidity Pressure Visibility Wind Dir Wind Speed Gust Speed Precip Events Conditions
12:13 AM 17.6 °F 12.3 °F 10.4 °F 73% 30.12 in 10.0 mi East 3.5 mph - N/A   Clear
12:33 AM 17.6 °F 10.7 °F 10.4 °F 73% 30.11 in 10.0 mi East 4.6 mph - N/A   Clear
12:53 AM 17.6 °F 12.3 °F 10.4 °F 73% 30.11 in 10.0 mi East 3.5 mph - N/A   Scattered Clouds
1:13 AM 17.6 °F 12.3 °F 10.4 °F 73% 30.11 in 10.0 mi East 3.5 mph - N/A   Scattered Clouds
1:33 AM 17.6 °F 12.3 °F 10.4 °F 73% 30.10 in 10.0 mi East 3.5 mph - N/A   Clear
1:53 AM 17.6 °F 10.7 °F 10.4 °F 73% 30.10 in 10.0 mi East 4.6 mph - N/A   Clear
2:13 AM 19.4 °F 14.3 °F 10.4 °F 68% 30.10 in 10.0 mi East 3.5 mph - N/A   Clear
2:33 AM 19.4 °F 12.8 °F 10.4 °F 68% 30.10 in 10.0 mi East 4.6 mph - N/A   Clear
2:53 AM 19.4 °F 10.4 °F 10.4 °F 68% 30.09 in 10.0 mi ESE 6.9 mph - N/A   Clear
3:13 AM 17.6 °F 12.3 °F 10.4 °F 73% 30.08 in 10.0 mi East 3.5 mph - N/A   Clear
3:33 AM 17.6 °F 10.7 °F 8.6 °F 68% 30.07 in 10.0 mi East 4.6 mph - N/A   Clear
3:53 AM 17.6 °F 10.7 °F 10.4 °F 73% 30.06 in 10.0 mi East 4.6 mph - N/A   Clear
4:13 AM 17.6 °F 10.7 °F 10.4 °F 73% 30.05 in 10.0 mi East 4.6 mph - N/A   Clear
4:33 AM 17.6 °F 10.7 °F 10.4 °F 73% 30.05 in 10.0 mi East 4.6 mph - N/A   Clear
4:53 AM 17.6 °F 10.7 °F 10.4 °F 73% 30.04 in 10.0 mi East 4.6 mph - N/A   Clear
5:13 AM 17.6 °F 10.7 °F 10.4 °F 73% 30.04 in 10.0 mi East 4.6 mph - N/A   Clear
5:33 AM 17.6 °F 10.7 °F 10.4 °F 73% 30.03 in 10.0 mi East 4.6 mph - N/A   Clear
6:13 AM 17.6 °F 10.7 °F 10.4 °F 73% 30.02 in 10.0 mi East 4.6 mph - N/A   Clear
6:33 AM 17.6 °F 10.7 °F 10.4 °F 73% 30.02 in 10.0 mi ESE 4.6 mph - N/A   Clear
6:53 AM 17.6 °F 10.7 °F 10.4 °F 73% 30.02 in 10.0 mi ESE 4.6 mph - N/A   Clear
7:13 AM 17.6 °F 10.7 °F 10.4 °F 73% 30.02 in 10.0 mi East 4.6 mph - N/A   Clear
7:33 AM 17.6 °F 12.3 °F 10.4 °F 73% 30.01 in 10.0 mi East 3.5 mph - N/A   Scattered Clouds
7:53 AM 17.6 °F 12.3 °F 10.4 °F 73% 30.01 in 10.0 mi East 3.5 mph - N/A   Scattered Clouds
8:13 AM 17.6 °F 12.3 °F 10.4 °F 73% 30.01 in 10.0 mi East 3.5 mph - N/A   Clear
8:33 AM 17.6 °F 12.3 °F 10.4 °F 73% 30.01 in 10.0 mi East 3.5 mph - N/A   Clear
8:53 AM 19.4 °F 14.3 °F 12.2 °F 74% 30.01 in 10.0 mi East 3.5 mph - N/A   Clear
9:13 AM 19.4 °F 12.8 °F 12.2 °F 74% 30.00 in 10.0 mi East 4.6 mph - N/A   Clear
9:33 AM 23.0 °F 15.8 °F 14.0 °F 68% 30.00 in 10.0 mi East 5.8 mph - N/A   Clear
9:53 AM 24.8 °F 17.9 °F 14.0 °F 64% 29.99 in 10.0 mi East 5.8 mph - N/A   Clear
10:13 AM 24.8 °F 17.9 °F 14.0 °F 64% 29.99 in 10.0 mi ESE 5.8 mph - N/A   Clear
10:33 AM 26.6 °F 21.2 °F 17.6 °F 69% 29.99 in 10.0 mi East 4.6 mph - N/A   Mostly Cloudy
10:53 AM 26.6 °F 20.0 °F 17.6 °F 69% 29.98 in 10.0 mi East 5.8 mph - N/A   Overcast
11:13 AM 26.6 °F 19.1 °F 17.6 °F 69% 29.98 in 10.0 mi East 6.9 mph - N/A   Overcast
11:33 AM 28.4 °F 22.2 °F 17.6 °F 64% 29.97 in 10.0 mi ESE 5.8 mph - N/A   Overcast
11:53 AM 30.2 °F 24.3 °F 17.6 °F 60% 29.97 in 10.0 mi ESE 5.8 mph - N/A   Overcast
12:13 PM 32.0 °F 24.8 °F 19.4 °F 60% 29.96 in 10.0 mi ESE 8.1 mph - N/A   Overcast
12:33 PM 32.0 °F 26.4 °F 19.4 °F 60% 29.95 in 10.0 mi SE 5.8 mph - N/A   Overcast
12:53 PM 32.0 °F 24.8 °F 19.4 °F 60% 29.94 in 10.0 mi SE 8.1 mph - N/A   Overcast
1:13 PM 32.0 °F 26.4 °F 19.4 °F 60% 29.93 in 10.0 mi SE 5.8 mph - N/A   Overcast
1:33 PM 32.0 °F 24.8 °F 19.4 °F 60% 29.92 in 10.0 mi SE 8.1 mph - N/A   Overcast
1:53 PM 32.0 °F 27.5 °F 19.4 °F 60% 29.90 in 10.0 mi ESE 4.6 mph - N/A   Overcast
2:13 PM 32.0 °F 26.4 °F 21.2 °F 64% 29.90 in 10.0 mi SE 5.8 mph - N/A   Overcast
2:33 PM 32.0 °F 24.8 °F 21.2 °F 64% 29.89 in 10.0 mi SE 8.1 mph - N/A   Overcast
2:53 PM 32.0 °F 24.2 °F 23.0 °F 69% 29.88 in 5.0 mi SE 9.2 mph - N/A Snow Light Snow
3:13 PM 32.0 °F 26.4 °F 26.6 °F 80% 29.88 in 5.0 mi ESE 5.8 mph - N/A Snow Light Snow
3:33 PM 32.0 °F 26.4 °F 26.6 °F 80% 29.88 in 2.5 mi ESE 5.8 mph - N/A Snow Light Snow
3:53 PM 32.0 °F 27.5 °F 28.4 °F 87% 29.88 in 1.8 mi ESE 4.6 mph - N/A Snow Light Snow
4:13 PM 32.0 °F 28.7 °F 28.4 °F 87% 29.88 in 1.5 mi ESE 3.5 mph - 0.01 in Snow Light Snow
4:33 PM 32.0 °F 27.5 °F 28.4 °F 87% 29.87 in 1.5 mi ESE 4.6 mph - 0.01 in Snow Light Snow
4:53 PM 32.0 °F 28.7 °F 28.4 °F 87% 29.87 in 1.2 mi ESE 3.5 mph - 0.02 in Snow Light Snow
5:13 PM 32.0 °F 26.4 °F 28.4 °F 87% 29.87 in 1.5 mi ESE 5.8 mph - 0.01 in Snow Light Snow
5:33 PM 32.0 °F 28.7 °F 28.4 °F 87% 29.87 in 2.5 mi ESE 3.5 mph - 0.01 in Snow Light Snow
5:53 PM 30.2 °F 26.7 °F 28.4 °F 93% 29.86 in 1.5 mi East 3.5 mph - 0.01 in Snow Light Snow
6:13 PM 30.2 °F 21.9 °F 28.4 °F 93% 29.86 in 1.2 mi ESE 9.2 mph - 0.01 in Snow Light Snow
6:33 PM 30.2 °F 26.7 °F 26.6 °F 86% 29.86 in 1.2 mi East 3.5 mph - 0.01 in Snow Light Snow
6:53 PM 30.2 °F 25.4 °F 28.4 °F 93% 29.86 in 1.5 mi East 4.6 mph - 0.01 in Snow Light Snow
7:13 PM 30.2 °F 24.3 °F 28.4 °F 93% 29.86 in 1.8 mi East 5.8 mph - N/A Snow Light Snow
7:33 PM 30.2 °F 26.7 °F 28.4 °F 93% 29.86 in 1.5 mi East 3.5 mph - 0.01 in Snow Light Snow
7:53 PM 30.2 °F 26.7 °F 28.4 °F 93% 29.85 in 1.5 mi East 3.5 mph - 0.01 in Snow Light Snow
8:13 PM 30.2 °F 26.7 °F 28.4 °F 93% 29.85 in 1.5 mi East 3.5 mph - 0.01 in Snow Light Snow
8:33 PM 30.2 °F 26.7 °F 28.4 °F 93% 29.84 in 1.5 mi East 3.5 mph - 0.01 in Snow Light Snow
8:53 PM 28.4 °F 23.3 °F 28.4 °F 100% 29.83 in 1.8 mi East 4.6 mph - 0.02 in Snow Light Snow
9:13 PM 28.4 °F 23.3 °F 26.6 °F 93% 29.83 in 2.5 mi East 4.6 mph - N/A Snow Light Snow
9:33 PM 28.4 °F 23.3 °F 26.6 °F 93% 29.83 in 4.0 mi East 4.6 mph - N/A Snow Light Snow
9:53 PM 28.4 °F 22.2 °F 26.6 °F 93% 29.82 in 5.0 mi East 5.8 mph - N/A Snow Light Snow
10:13 PM 28.4 °F 23.3 °F 26.6 °F 93% 29.82 in 4.0 mi ESE 4.6 mph - N/A Snow Light Snow
10:33 PM 28.4 °F 24.6 °F 26.6 °F 93% 29.83 in 3.0 mi ESE 3.5 mph - N/A Snow Light Snow
10:53 PM 28.4 °F - 26.6 °F 93% 29.83 in 2.0 mi Calm Calm - N/A Snow Light Snow
11:13 PM 28.4 °F - 26.6 °F 93% 29.82 in 2.0 mi Calm Calm - N/A Snow Light Snow
11:33 PM 28.4 °F - 26.6 °F 93% 29.82 in 2.0 mi Calm Calm - N/A Snow Light Snow
11:53 PM 28.4 °F - 26.6 °F 93% 29.82 in 3.0 mi Calm Calm - N/A Snow Light Snow